Location: Newark
(30.4994°N, 96.8283°W)
Time: 01:32:24
(UTC+00:00)

Envisat - Visible Passes

Search period start: 20 November 2019 00:00
Search period end: 30 November 2019 00:00
Orbit: 764 x 766 km, 98.1° (Epoch: 19 November)

Date Brightness Start Highest point End Pass type
(mag) Time Alt. Az. Time Alt. Az. Time Alt. Az.
20 Nov 5.4 01:34:55 10° SW 01:38:46 22° W 01:42:38 10° NW visible
20 Nov 6.0 12:10:44 10° NE 12:14:04 18° E 12:17:24 10° SE visible
21 Nov 3.7 00:56:56 10° S 01:01:52 54° W 01:06:50 10° NNW visible
22 Nov 3.0 00:20:10 10° SSE 00:25:08 61° ENE 00:30:09 10° N visible
22 Nov 6.2 02:03:09 10° WSW 02:04:27 11° W 02:05:45 10° WNW visible
22 Nov 4.0 23:44:32 10° SE 23:48:36 25° ENE 23:52:41 10° NNE visible
23 Nov 5.0 01:23:07 10° SSW 01:27:26 28° W 01:31:47 10° NW visible
23 Nov 6.2 12:00:21 10° ENE 12:02:43 13° E 12:05:04 10° ESE visible
24 Nov 3.2 00:45:33 10° S 00:50:35 71° WSW 00:55:40 10° NNW visible
25 Nov 3.2 00:09:06 10° SE 00:13:55 46° ENE 00:18:45 10° N visible
25 Nov 5.9 01:50:17 10° SW 01:53:05 15° W 01:55:54 10° WNW visible
25 Nov 5.6 12:24:12 10° NE 12:28:23 25° E 12:32:32 10° SSE visible
26 Nov 4.5 01:11:28 10° SSW 01:16:07 37° W 01:20:48 10° NNW visible
27 Nov 2.9 00:34:16 10° SSE 00:39:20 88° ENE 00:44:25 10° NNW visible
27 Nov 3.5 23:58:07 10° SE 00:02:42 35° ENE 00:07:18 10° N visible
28 Nov 5.6 01:38:07 10° SW 01:41:44 20° W 01:45:22 10° NW visible
28 Nov 5.9 12:13:25 10° NE 12:17:03 19° E 12:20:39 10° SE visible
29 Nov 4.0 00:59:57 10° S 01:04:49 48° W 01:09:44 10° NNW visible
